Regional Weather Roundup
Issued by NWS Bismarck, ND

Home | Current Version | Previous Version | Text Only | Print | Product List | Glossary On
Versions: 1 2 3 4 5 6 7 8 9 10 11 12 13 14 15 16 17 18 19 20 21 22 23 24 25 26 27 28 29 30 31 32 33 34 35 36 37 38 39 40 41 42 43 44 45 46 47 48 49 50
240
ASUS43 KBIS 290310
RWRBIS

NWR BROADCAST TEXT
NATIONAL WEATHER SERVICE BISMARCK ND
1000 PM CDT FRI APR 28 2017

NOTE: "FAIR" INDICATES FEW OR NO CLOUDS BELOW 12,000 FEET WITH NO
SIGNIFICANT WEATHER AND/OR OBSTRUCTIONS TO VISIBILITY.


CITY           SKY/WX    TMP DP  RH WIND       PRES   REMARKS
WILLISTON      MOCLDY    51  21  30 S3        30.13R
MINOT          FAIR      45  17  32 CALM      30.14R
MINOT AFB      FAIR      42  31  64 CALM      30.13R
BISMARCK       FAIR      49  18  29 NE5       30.16R
DICKINSON      FAIR      39  16  39 E7        30.14R
GARRISON         N/A     41  20  43 W7        30.15R
HETTINGER ARPT FAIR      38  20  48 CALM      30.17R
JAMESTOWN      FAIR      40  26  57 N3        30.14R
HAZEN          FAIR      32  18  55 CALM      30.18R
LINTON           N/A     41  19  42 E3        30.17R
MANDAN         FAIR      48  10  21 N5        30.16R
STANLEY        MIX PCPN  39  21  48 SW6       30.16R
TIOGA          CLOUDY    41  18  38 S8        30.15R
WATFORD CITY   FAIR      43  23  45 CALM      30.14R
$$

CITY           SKY/WX    TMP DP  RH WIND       PRES   REMARKS
GRAND FORKS    FAIR      38  29  70 N8        30.14R
GRAND FORKS AF FAIR      38  27  64 N5        30.15R
DEVILS LAKE    FAIR      43  22  43 E3        30.16R
FARGO          FAIR      40  27  59 N7        30.13R
CAVALIER       FAIR      36  19  51 NW3       30.15R
GRAFTON        FAIR      41  23  48 NW7       30.17R
GWINNER        CLEAR     43  27  52 MISG      30.14R
LANGDON        FAIR      37  19  48 E7        30.15R
ROLLA          FAIR      37  21  52 NE5       30.15R
$$

CITY           SKY/WX    TMP DP  RH WIND       PRES   REMARKS
ABERDEEN       FAIR      38  21  50 CALM      30.14R
MOBRIDGE       FAIR      46  13  26 NE7       30.13R
BUFFALO          N/A     44  26  49 E8        30.10R
RAPID CITY     FAIR      36  28  73 NE6       30.15R
GLASGOW        FAIR      45  34  65 NW9       30.13R
SIDNEY         FAIR      41  25  53 CALM      30.14R
WOLF POINT     FAIR      50  22  33 SW3       30.11R
GLENDIVE       FAIR      44  29  55 W5        30.15
MILES CITY     FAIR      48  25  40 W3        30.15R
BAKER          FAIR      41  27  57 SE6       30.15R
$$

CITY           SKY/WX    TMP DP  RH WIND       PRES   REMARKS
BILLINGS       CLOUDY    43  34  70 CALM      30.16R
GREAT FALLS    FAIR      35  32  88 S5        30.15R
REGINA         MOCLDY    43  34  70 NW8       30.12R
ESTEVAN        PTCLDY    45  30  57 SE7       30.12R
$$





USA.gov is the U.S. government's official web portal to all federal, state and local government web resources and services.